Weather History for Rexburg, ID

Change the Weather History Date:

Friday, January 24, 2014

  Actual Average Record
Temperature  
Mean Temperature 16 °F 20 °F  
Max Temperature 29 °F 29 °F 34 °F (2003)
Min Temperature 2 °F 11 °F -14 °F (2008)
Degree Days  
Heating Degree Days 49 45  
Month to date heating degree days 1059 1080  
Since 1 July heating degree days 4398 4462  
Cooling Degree Days 0 0  
Month to date cooling degree days 0 0  
Year to date cooling degree days 0 0  
Moisture  
Dew Point 7 °F    
Average Humidity 72    
Maximum Humidity 91    
Minimum Humidity 53    
Precipitation  
Precipitation 0.00 in 0.01 in 0.43 in (1984)
Month to date precipitation 0.46 0.61  
Year to date precipitation 0.46 0.61  
Sea Level Pressure  
Sea Level Pressure 30.73 in    
Wind  
Wind Speed 3 mph (NE)    
Max Wind Speed 7 mph    
Max Gust Speed 9 mph    
Visibility 10 miles    
Events      
T = Trace of Precipitation, MM = Missing Value Source: NWS Daily Summary

Daily Weather History Graph

Daily Weather History Graph

Search for Another Location

Airport:

Trip Planner

Search our weather history database for the weather conditions in past years. The results will help you decide how hot, cold, wet, or windy it might be!

Date:

Astronomy

Jan. 24, 2014 Rise Set
Actual Time 7:51 AM MST 5:27 PM MST
Civil Twilight 7:20 AM MST 5:58 PM MST
Nautical Twilight 6:45 AM MST 6:33 PM MST
Astronomical Twilight 6:11 AM MST 7:07 PM MST
Moon 1:20 AM MST (1/24) 11:50 AM MST (1/24)
Length of Visible Light 10h 37m
Length of Day
9h 35m
Last Quarter, 44% of the Moon is Illuminated
Jan 24
Last Quarter
Jan 30
New
Feb 6
First Quarter
Feb 14
Full
Feb 22
Last Quarter

Hourly Weather History & Observations

Time (MST) Temp. Windchill Dew Point Humidity Pressure Visibility Wind Dir Wind Speed Gust Speed Precip Events Conditions
12:53 AM 6.1 °F -0.9 °F 1.9 °F 83% 30.73 in 10.0 mi NE 3.5 mph - N/A   Clear
1:53 AM 5.0 °F - 1.0 °F 84% 30.72 in 10.0 mi Calm Calm - N/A   Clear
2:53 AM 6.1 °F -0.9 °F 1.0 °F 80% 30.74 in 10.0 mi NE 3.5 mph - N/A   Clear
3:53 AM 6.1 °F -0.9 °F 1.9 °F 83% 30.74 in 10.0 mi NE 3.5 mph - N/A   Clear
4:53 AM 5.0 °F -2.1 °F 1.0 °F 84% 30.74 in 10.0 mi NE 3.5 mph - N/A   Clear
5:53 AM 3.9 °F - 1.0 °F 88% 30.77 in 10.0 mi Calm Calm - N/A   Clear
6:53 AM 3.9 °F -5.3 °F -0.0 °F 84% 30.81 in 10.0 mi ENE 4.6 mph - N/A   Clear
7:53 AM 3.9 °F -6.9 °F 1.0 °F 88% 30.84 in 10.0 mi NE 5.8 mph - N/A   Clear
8:53 AM 6.1 °F -0.9 °F 1.0 °F 80% 30.84 in 10.0 mi ENE 3.5 mph - N/A   Clear
9:53 AM 10.0 °F 1.8 °F 3.0 °F 73% 30.82 in 10.0 mi NE 4.6 mph - N/A   Clear
10:53 AM 15.1 °F 9.4 °F 7.0 °F 70% 30.82 in 10.0 mi NE 3.5 mph - N/A   Clear
11:53 AM 19.9 °F - 8.1 °F 60% 30.78 in 10.0 mi Calm Calm - N/A   Clear
12:53 PM 24.1 °F - 10.9 °F 57% 30.74 in 10.0 mi Calm Calm - N/A   Clear
1:53 PM 27.0 °F - 14.0 °F 58% 30.71 in 10.0 mi Calm Calm - N/A   Clear
2:53 PM 28.9 °F 25.2 °F 14.0 °F 54% 30.66 in 10.0 mi NE 3.5 mph - N/A   Clear
3:53 PM 28.0 °F 22.8 °F 14.0 °F 56% 30.67 in 10.0 mi NE 4.6 mph - N/A   Clear
4:53 PM 28.0 °F 22.8 °F 14.0 °F 56% 30.66 in 10.0 mi NE 4.6 mph - N/A   Clear
5:53 PM 23.0 °F - 15.1 °F 72% 30.69 in 10.0 mi Calm Calm - N/A   Clear
6:53 PM 19.9 °F - 14.0 °F 78% 30.71 in 10.0 mi Calm Calm - N/A   Clear
7:53 PM 16.0 °F 8.8 °F 12.0 °F 84% 30.73 in 10.0 mi NE 4.6 mph - N/A   Clear
8:53 PM 14.0 °F 8.2 °F 10.0 °F 84% 30.73 in 10.0 mi NE 3.5 mph - N/A   Clear
9:53 PM 12.0 °F 2.7 °F 9.0 °F 88% 30.72 in 10.0 mi NE 5.8 mph - N/A   Clear
10:37 PM 10.9 °F 4.7 °F 7.0 °F 84% 30.48 in 10.0 mi NE 3.5 mph - N/A   Partly Cloudy
10:53 PM 10.0 °F 1.8 °F 6.1 °F 84% 30.70 in 10.0 mi NE 4.6 mph - N/A   Partly Cloudy
11:53 PM 10.0 °F 1.8 °F 6.1 °F 84% 30.68 in 10.0 mi ENE 4.6 mph - N/A   Clear